Location: Aufkirchen
(47.9603°N, 11.3653°E)
Time: 16:58:50
(UTC+01:00)

Transit 2A - Pass Details

Date: 03 December 2020
Orbit: 599 x 960 km, 66.7° (Epoch: 26 January)

Event Time Altitude Azimuth Distance (km) Brightness Sun altitude
Rises 22:50:35 0° 326° (NW) 3,390 - -60.3°
Reaches altitude 10° 22:53:58 10° 345° (NNW) 2,377 - -60.7°
Maximum altitude 22:57:35 18° 27° (NNE) 1,817 - -61.0°
Drops below altitude 10° 23:00:58 10° 69° (ENE) 2,208 - -61.3°
Sets 23:03:57 0° 89° (E) 3,055 - -61.6°
